Location: Goettingen
(51.5300°N, 9.9433°E)
Time: 17:18:51
(UTC+02:00)

ISS - Pass Details

Date: 09 May 2026
Orbit: 414 x 424 km, 51.6° (Epoch: 13 May)

Event Time Altitude Azimuth Distance (km) Brightness Sun altitude
Rises 00:04:12 0° 254° (WSW) 2,349 0.1 -19.4°
Reaches altitude 10° 00:06:17 10° 253° (WSW) 1,488 -1.0 -19.5°
Enters shadow 00:08:13 32° 249° (WSW) 737 -2.6 -19.6°
